TimeCST,TemperatureF,Dew PointF,Humidity,Sea Level PressureIn,VisibilityMPH,Wind Direction,Wind SpeedMPH,Gust SpeedMPH,PrecipitationIn,Events,Conditions,WindDirDegrees,DateUTC
12:53 AM,63.0,61.0,93,29.99,8.0,South,5.8,-,N/A,,Overcast,170,2012-12-09 06:53:00
1:39 AM,64.4,60.8,88,29.98,10.0,SSE,5.8,-,N/A,,Overcast,160,2012-12-09 07:39:00
1:53 AM,64.0,61.0,90,29.97,10.0,South,5.8,-,N/A,,Overcast,170,2012-12-09 07:53:00
2:44 AM,64.4,60.8,88,29.99,10.0,South,3.5,-,N/A,,Overcast,190,2012-12-09 08:44:00
2:53 AM,64.9,61.0,87,29.98,10.0,South,4.6,-,N/A,,Overcast,180,2012-12-09 08:53:00
3:53 AM,64.9,61.0,87,29.99,10.0,SSE,3.5,-,N/A,,Overcast,160,2012-12-09 09:53:00
4:53 AM,64.0,61.0,90,29.99,10.0,SSE,3.5,-,N/A,,Overcast,150,2012-12-09 10:53:00
5:53 AM,64.0,61.0,90,30.01,10.0,South,4.6,-,N/A,,Overcast,170,2012-12-09 11:53:00
6:00 AM,64.4,60.8,88,30.02,10.0,South,3.5,-,N/A,,Overcast,190,2012-12-09 12:00:00
6:42 AM,62.6,60.8,94,30.03,10.0,SE,3.5,-,N/A,,Mostly Cloudy,140,2012-12-09 12:42:00
6:53 AM,64.0,61.0,90,30.03,10.0,South,3.5,-,N/A,,Mostly Cloudy,170,2012-12-09 12:53:00
7:53 AM,64.0,61.0,90,30.04,10.0,SSE,4.6,-,N/A,,Overcast,150,2012-12-09 13:53:00
8:51 AM,66.2,62.6,88,30.05,10.0,SE,4.6,-,N/A,,Overcast,140,2012-12-09 14:51:00
8:53 AM,66.0,62.1,87,30.04,10.0,SE,3.5,-,N/A,,Overcast,140,2012-12-09 14:53:00
9:18 AM,68.0,62.6,83,30.05,10.0,SSE,6.9,-,N/A,,Overcast,150,2012-12-09 15:18:00
9:53 AM,70.0,62.1,76,30.04,10.0,SE,4.6,-,N/A,,Overcast,140,2012-12-09 15:53:00
10:53 AM,73.0,63.0,71,30.02,10.0,South,11.5,-,N/A,,Overcast,170,2012-12-09 16:53:00
11:53 AM,73.9,64.0,71,29.99,10.0,SSW,9.2,-,N/A,,Overcast,200,2012-12-09 17:53:00
12:32 PM,75.2,64.4,69,29.98,10.0,South,8.1,-,N/A,,Overcast,170,2012-12-09 18:32:00
12:53 PM,75.9,64.9,69,29.96,10.0,SSE,9.2,-,N/A,,Overcast,160,2012-12-09 18:53:00
1:53 PM,75.0,66.9,76,29.94,9.0,South,8.1,-,0.01,Rain,Light Rain,180,2012-12-09 19:53:00
2:00 PM,75.2,66.2,73,29.94,10.0,South,9.2,-,0.00,,Overcast,180,2012-12-09 20:00:00
2:30 PM,75.2,66.2,73,29.93,10.0,SSE,12.7,-,0.00,,Mostly Cloudy,160,2012-12-09 20:30:00
2:53 PM,75.9,66.0,71,29.93,10.0,South,13.8,18.4,0.00,,Mostly Cloudy,180,2012-12-09 20:53:00
3:06 PM,75.2,66.2,73,29.93,10.0,SSE,12.7,17.3,N/A,,Mostly Cloudy,160,2012-12-09 21:06:00
3:33 PM,75.2,66.2,73,29.93,10.0,South,5.8,-,N/A,,Mostly Cloudy,170,2012-12-09 21:33:00
3:53 PM,75.0,66.0,73,29.92,10.0,SSE,12.7,-,N/A,,Mostly Cloudy,160,2012-12-09 21:53:00
4:00 PM,73.4,66.2,78,29.92,10.0,South,12.7,-,N/A,,Partly Cloudy,170,2012-12-09 22:00:00
4:48 PM,71.6,68.0,88,29.93,10.0,SSE,5.8,-,0.03,Rain,Light Rain,150,2012-12-09 22:48:00
4:53 PM,71.1,68.0,90,29.92,10.0,SE,6.9,-,0.03,Rain,Light Rain,140,2012-12-09 22:53:00
5:18 PM,71.6,68.0,88,29.93,10.0,SSE,5.8,-,0.00,,Overcast,160,2012-12-09 23:18:00
5:53 PM,71.1,68.0,90,29.93,10.0,South,8.1,-,0.00,,Overcast,180,2012-12-09 23:53:00
6:53 PM,71.1,68.0,90,29.93,10.0,South,8.1,-,N/A,,Mostly Cloudy,170,2012-12-10 00:53:00
7:53 PM,70.0,66.0,87,29.92,10.0,South,8.1,-,0.00,,Scattered Clouds,180,2012-12-10 01:53:00
8:53 PM,70.0,66.9,90,29.91,10.0,South,10.4,-,N/A,,Scattered Clouds,180,2012-12-10 02:53:00
9:28 PM,71.6,66.2,83,29.91,10.0,South,9.2,-,N/A,,Mostly Cloudy,170,2012-12-10 03:28:00
9:53 PM,71.1,66.9,87,29.91,10.0,South,9.2,-,N/A,,Mostly Cloudy,180,2012-12-10 03:53:00
10:14 PM,71.6,66.2,83,29.92,10.0,South,10.4,-,N/A,,Mostly Cloudy,180,2012-12-10 04:14:00
10:26 PM,71.6,66.2,83,29.92,10.0,South,8.1,-,N/A,,Scattered Clouds,180,2012-12-10 04:26:00
10:53 PM,71.1,66.9,87,29.92,10.0,South,8.1,-,N/A,,Mostly Cloudy,180,2012-12-10 04:53:00
11:36 PM,71.6,66.2,83,29.92,10.0,South,9.2,-,N/A,,Overcast,180,2012-12-10 05:36:00
11:53 PM,71.1,66.9,87,29.91,10.0,South,8.1,-,N/A,,Overcast,180,2012-12-10 05:53:00